EN

Hourly Weather Dziady

Today, 26 October, Monday

Time Temperature Precipitation Wind Pressure Humidity
00:00 +10°C° 0 mm 3 mps 735 mmHg 93%
01:00 +10°C° 0 mm 3 mps 735 mmHg 94%
02:00 +10°C° 0 mm 3 mps 735 mmHg 94%
03:00 +10°C° 0 mm 2 mps 734 mmHg 94%
04:00 +10°C° 0 mm 2 mps 734 mmHg 95%
05:00 +10°C° 0 mm 2 mps 734 mmHg 94%
06:00 +9°C° 0 mm 2 mps 734 mmHg 94%
07:00 +9°C° 0 mm 2 mps 734 mmHg 94%
08:00 +12°C° 0 mm 2 mps 734 mmHg 87%
09:00 +12°C° 0 mm 3 mps 734 mmHg 81%
10:00 +14°C° 0 mm 3 mps 734 mmHg 74%
11:00 +16°C° 0 mm 3 mps 733 mmHg 69%
12:00 +17°C° 0 mm 3 mps 733 mmHg 65%
13:00 +18°C° 0 mm 3 mps 733 mmHg 60%
14:00 +17°C° 0 mm 3 mps 733 mmHg 64%
15:00 +17°C° 0 mm 3 mps 733 mmHg 67%
16:00 +16°C° 0 mm 3 mps 732 mmHg 70%
17:00 +16°C° 0 mm 3 mps 733 mmHg 70%
18:00 +14°C° 0 mm 3 mps 733 mmHg 71%
19:00 +14°C° 0 mm 3 mps 733 mmHg 72%
20:00 +14°C° 0 mm 3 mps 733 mmHg 74%
21:00 +14°C° 0 mm 3 mps 733 mmHg 75%
22:00 +14°C° 0 mm 2 mps 733 mmHg 76%
23:00 +14°C° 0 mm 2 mps 733 mmHg 78%

Tomorrow, 27 October, Tuesday

Time Temperature Precipitation Wind Pressure Humidity
00:00 +14°C° 0 mm 2 mps 733 mmHg 79%
01:00 +14°C° 0 mm 2 mps 734 mmHg 80%
02:00 +14°C° 0 mm 2 mps 734 mmHg 80%
03:00 +14°C° 0 mm 2 mps 734 mmHg 80%
04:00 +13°C° 0 mm 3 mps 734 mmHg 79%
05:00 +12°C° 0 mm 3 mps 734 mmHg 80%
06:00 +12°C° 0 mm 3 mps 734 mmHg 80%
07:00 +12°C° 0 mm 3 mps 734 mmHg 80%
08:00 +13°C° 0 mm 3 mps 734 mmHg 75%
09:00 +15°C° 0 mm 4 mps 735 mmHg 70%
10:00 +17°C° 0 mm 4 mps 735 mmHg 64%
11:00 +18°C° 0 mm 4 mps 735 mmHg 60%
12:00 +19°C° 0 mm 5 mps 735 mmHg 55%
13:00 +20°C° 0 mm 5 mps 735 mmHg 50%
14:00 +19°C° 0 mm 4 mps 735 mmHg 55%
15:00 +18°C° 0 mm 3 mps 735 mmHg 60%
16:00 +17°C° 0 mm 3 mps 735 mmHg 65%
17:00 +16°C° 0 mm 3 mps 735 mmHg 68%
18:00 +14°C° 0 mm 3 mps 735 mmHg 71%
19:00 +14°C° 0 mm 3 mps 735 mmHg 75%
20:00 +13°C° 0 mm 3 mps 736 mmHg 76%
21:00 +14°C° 0 mm 2 mps 736 mmHg 78%
22:00 +14°C° 0 mm 2 mps 736 mmHg 80%
23:00 +13°C° 0 mm 2 mps 737 mmHg 84%

Day after tomorrow, 28 October, Wednesday

Time Temperature Precipitation Wind Pressure Humidity
00:00 +12°C° 0 mm 2 mps 737 mmHg 89%
01:00 +12°C° 0 mm 2 mps 737 mmHg 93%
02:00 +11°C° 0 mm 1 mps 737 mmHg 93%
03:00 +11°C° 0 mm 1 mps 737 mmHg 94%
04:00 +10°C° 0 mm 1 mps 738 mmHg 94%
05:00 +10°C° 0 mm 1 mps 738 mmHg 94%
06:00 +10°C° 0 mm 1 mps 738 mmHg 94%
07:00 +10°C° 0 mm 1 mps 738 mmHg 95%
08:00 +11°C° 0 mm 1 mps 738 mmHg 89%
09:00 +12°C° 0 mm 1 mps 738 mmHg 83%
10:00 +13°C° 0 mm 2 mps 738 mmHg 77%
11:00 +14°C° 0 mm 2 mps 738 mmHg 74%
12:00 +15°C° 0 mm 2 mps 738 mmHg 72%
13:00 +14°C° 0 mm 3 mps 738 mmHg 69%
14:00 +15°C° 0 mm 2 mps 738 mmHg 73%
15:00 +15°C° 0 mm 2 mps 738 mmHg 76%
16:00 +14°C° 0 mm 1 mps 738 mmHg 79%
17:00 +14°C° 0 mm 1 mps 738 mmHg 81%
18:00 +13°C° 0 mm 2 mps 738 mmHg 83%
19:00 +13°C° 0 mm 2 mps 738 mmHg 84%
20:00 +13°C° 0 mm 2 mps 738 mmHg 85%
21:00 +12°C° 0 mm 2 mps 738 mmHg 86%
22:00 +12°C° 0 mm 2 mps 738 mmHg 87%
23:00 +12°C° 0 mm 2 mps 738 mmHg 87%

29 October, Thursday

Time Temperature Precipitation Wind Pressure Humidity
00:00 +10°C° 0 mm 2 mps 738 mmHg 86%
01:00 +10°C° 0 mm 2 mps 739 mmHg 86%
02:00 +9°C° 0 mm 2 mps 739 mmHg 84%
03:00 +9°C° 0 mm 2 mps 739 mmHg 82%
04:00 +9°C° 0 mm 2 mps 739 mmHg 81%
05:00 +9°C° 0 mm 2 mps 739 mmHg 80%
06:00 +9°C° 0 mm 2 mps 739 mmHg 78%
07:00 +9°C° 0 mm 3 mps 739 mmHg 77%
08:00 +10°C° 0 mm 3 mps 739 mmHg 73%
09:00 +12°C° 0 mm 3 mps 739 mmHg 68%
10:00 +13°C° 0 mm 3 mps 740 mmHg 63%
11:00 +14°C° 0 mm 4 mps 740 mmHg 60%
12:00 +14°C° 0 mm 4 mps 740 mmHg 58%
13:00 +15°C° 0 mm 5 mps 740 mmHg 55%
14:00 +14°C° 0 mm 5 mps 740 mmHg 58%
15:00 +14°C° 0 mm 4 mps 740 mmHg 61%
16:00 +13°C° 0 mm 4 mps 740 mmHg 64%
17:00 +12°C° 0 mm 3 mps 741 mmHg 68%
18:00 +11°C° 0 mm 3 mps 741 mmHg 71%
19:00 +11°C° 0 mm 3 mps 742 mmHg 74%
20:00 +10°C° 0 mm 3 mps 742 mmHg 76%
21:00 +10°C° 0 mm 3 mps 742 mmHg 79%
22:00 +10°C° 0 mm 3 mps 742 mmHg 81%
23:00 +9°C° 0 mm 3 mps 742 mmHg 81%

30 October, Friday

Time Temperature Precipitation Wind Pressure Humidity
00:00 +9°C° 0 mm 3 mps 742 mmHg 82%
01:00 +8°C° 0 mm 3 mps 743 mmHg 82%
02:00 +8°C° 0 mm 3 mps 743 mmHg 82%
03:00 +9°C° 0 mm 3 mps 743 mmHg 82%
04:00 +8°C° 0 mm 4 mps 743 mmHg 82%
05:00 +8°C° 0 mm 4 mps 743 mmHg 82%
06:00 +8°C° 0 mm 4 mps 743 mmHg 81%
07:00 +8°C° 0 mm 4 mps 743 mmHg 80%
08:00 +10°C° 0 mm 4 mps 743 mmHg 77%
09:00 +10°C° 0 mm 5 mps 743 mmHg 73%
10:00 +12°C° 0 mm 5 mps 743 mmHg 69%
11:00 +12°C° 0 mm 5 mps 743 mmHg 69%
12:00 +13°C° 0 mm 5 mps 743 mmHg 68%
13:00 +13°C° 0 mm 4 mps 743 mmHg 68%
14:00 +13°C° 0 mm 4 mps 743 mmHg 70%
15:00 +12°C° 0 mm 4 mps 743 mmHg 72%
16:00 +12°C° 0 mm 3 mps 743 mmHg 73%
17:00 +12°C° 0 mm 4 mps 743 mmHg 73%
18:00 +12°C° 0 mm 4 mps 743 mmHg 73%
19:00 +11°C° 0 mm 4 mps 743 mmHg 73%
20:00 +11°C° 0 mm 4 mps 743 mmHg 73%
21:00 +11°C° 0 mm 4 mps 743 mmHg 72%
22:00 +11°C° 0 mm 3 mps 743 mmHg 72%
23:00 +11°C° 0 mm 3 mps 743 mmHg 73%

31 October, Saturday

Time Temperature Precipitation Wind Pressure Humidity
00:00 +10°C° 0 mm 3 mps 743 mmHg 74%
01:00 +10°C° 0 mm 3 mps 743 mmHg 75%
02:00 +10°C° 0 mm 3 mps 743 mmHg 76%
03:00 +9°C° 0 mm 3 mps 743 mmHg 77%
04:00 +9°C° 0 mm 3 mps 743 mmHg 78%
05:00 +9°C° 0 mm 3 mps 743 mmHg 78%
06:00 +9°C° 0 mm 3 mps 743 mmHg 79%
07:00 +9°C° 0 mm 3 mps 743 mmHg 79%
Show more